"Period start","avg(HW err(1)/warn(2) (#))","avg(Visibility (m))","avg(Weather code (#))","avg(Precip intensity (mm/h))","min(HW err(1)/warn(2) (#))","max(HW err(1)/warn(2) (#))","std(HW err(1)/warn(2) (#))","med(HW err(1)/warn(2) (#))","min(Visibility (m))","max(Visibility (m))","std(Visibility (m))","med(Visibility (m))","min(Weather code (#))","max(Weather code (#))","std(Weather code (#))","med(Weather code (#))","min(Precip intensity (mm/h))","max(Precip intensity (mm/h))","std(Precip intensity (mm/h))","med(Precip intensity (mm/h))"
2014-08-01 00:00:00,0,29004,0,0.00,0,0,0,0,14881,44693,11317,31485,0,0,0,0,0.00,0.00,0.00,0.00
2014-08-01 00:10:00,0,21349,0,0.00,0,0,0,0,10661,45683,10687,16988,0,0,0,0,0.00,0.00,0.00,0.00
2014-08-01 00:20:00,0,49457,0,0.00,0,0,0,0,47042,50000,929,50000,0,0,0,0,0.00,0.00,0.00,0.00
2014-08-01 00:30:00,0,30753,0,0.00,0,0,0,0,16512,47037,12830,25618,0,0,0,0,0.00,0.00,0.00,0.00
2014-08-01 00:40:00,0,24395,0,0.00,0,0,0,0,16857,34337,6487,23643,0,0,0,0,0.00,0.00,0.00,0.00
2014-08-01 00:50:00,0,36126,0,0.00,0,0,0,0,18084,50000,11129,33608,0,0,0,0,0.00,0.00,0.00,0.00
2014-08-01 01:00:00,0,44681,0,0.00,0,0,0,0,30784,50000,6138,46513,0,0,0,0,0.00,0.00,0.00,0.00
2014-08-01 01:10:00,0,42889,0,0.00,0,0,0,0,29235,49272,5732,44378,0,0,0,0,0.00,0.00,0.00,0.00
2014-08-01 01:20:00,0,15990,0,0.00,0,0,0,0,13166,19873,2167,15856,0,0,0,0,0.00,0.00,0.00,0.00
2014-08-01 01:30:00,0,25222,0,0.00,0,0,0,0,14823,32273,4962,26124,0,0,0,0,0.00,0.00,0.00,0.00
2014-08-01 01:40:00,0,25624,0,0.00,0,0,0,0,22437,31088,2734,24758,0,0,0,0,0.00,0.00,0.00,0.00
2014-08-01 01:50:00,0,25912,0,0.00,0,0,0,0,23161,28553,1624,26136,0,0,0,0,0.00,0.00,0.00,0.00
2014-08-01 02:00:00,0,29042,0,0.00,0,0,0,0,24041,35370,3585,28861,0,0,0,0,0.00,0.00,0.00,0.00
2014-08-01 02:10:00,0,23162,0,0.00,0,0,0,0,16700,28107,3874,24238,0,0,0,0,0.00,0.00,0.00,0.00
2014-08-01 02:20:00,0,28442,0,0.00,0,0,0,0,17709,47871,10672,24240,0,0,0,0,0.00,0.00,0.00,0.00
2014-08-01 02:30:00,0,38870,0,0.00,0,0,0,0,27027,50000,7762,38916,0,0,0,0,0.00,0.00,0.00,0.00
2014-08-01 02:40:00,0,33551,0,0.00,0,0,0,0,25761,39291,4328,34595,0,0,0,0,0.00,0.00,0.00,0.00
2014-08-01 02:50:00,0,32707,0,0.00,0,0,0,0,26921,38996,3928,32192,0,0,0,0,0.00,0.00,0.00,0.00
2014-08-01 03:00:00,0,34978,0,0.00,0,0,0,0,30530,40963,3640,33300,0,0,0,0,0.00,0.00,0.00,0.00
2014-08-01 03:10:00,0,23511,0,0.00,0,0,0,0,16593,37414,6355,21688,0,0,0,0,0.00,0.00,0.00,0.00
2014-08-01 03:20:00,0,17386,0,0.00,0,0,0,0,13197,20806,2307,17423,0,0,0,0,0.00,0.00,0.00,0.00
2014-08-01 03:30:00,0,15200,0,0.00,0,0,0,0,10980,20834,3415,13493,0,0,0,0,0.00,0.00,0.00,0.00
2014-08-01 03:40:00,0,12537,0,0.00,0,0,0,0,10967,14844,1129,12360,0,0,0,0,0.00,0.00,0.00,0.00
2014-08-01 03:50:00,0,13667,0,0.00,0,0,0,0,11953,15692,1050,13364,0,0,0,0,0.00,0.00,0.00,0.00
2014-08-01 04:00:00,0,13602,0,0.00,0,0,0,0,10570,17469,2198,13684,0,0,0,0,0.00,0.00,0.00,0.00
2014-08-01 04:10:00,0,23892,0,0.00,0,0,0,0,15058,29501,4461,24358,0,0,0,0,0.00,0.00,0.00,0.00
2014-08-01 04:20:00,0,20747,0,0.00,0,0,0,0,12066,30337,4831,21182,0,0,0,0,0.00,0.00,0.00,0.00
2014-08-01 04:30:00,0,29944,0,0.00,0,0,0,0,16234,40585,8619,32348,0,0,0,0,0.00,0.00,0.00,0.00
2014-08-01 04:40:00,0,42277,0,0.00,0,0,0,0,31362,50000,6920,46140,0,0,0,0,0.00,0.00,0.00,0.00
2014-08-01 04:50:00,0,49297,0,0.00,0,0,0,0,47028,50000,940,49882,0,0,0,0,0.00,0.00,0.00,0.00
2014-08-01 05:00:00,0,48828,0,0.00,0,0,0,0,42050,50000,2377,50000,0,0,0,0,0.00,0.00,0.00,0.00
2014-08-01 05:10:00,0,46029,0,0.00,0,0,0,0,40039,50000,3061,45550,0,0,0,0,0.00,0.00,0.00,0.00
2014-08-01 05:20:00,0,37865,0,0.00,0,0,0,0,25776,49415,8275,36750,0,0,0,0,0.00,0.00,0.00,0.00
2014-08-01 05:30:00,0,38498,0,0.00,0,0,0,0,33843,44969,3393,38025,0,0,0,0,0.00,0.00,0.00,0.00
2014-08-01 05:40:00,0,40922,0,0.00,0,0,0,0,35606,46581,3722,40096,0,0,0,0,0.00,0.00,0.00,0.00
2014-08-01 05:50:00,0,41157,0,0.00,0,0,0,0,33337,46578,4345,41818,0,0,0,0,0.00,0.00,0.00,0.00
2014-08-01 06:00:00,0,42668,0,0.00,0,0,0,0,37141,48579,3814,41961,0,0,0,0,0.00,0.00,0.00,0.00
2014-08-01 06:10:00,0,47083,0,0.00,0,0,0,0,41762,50000,2619,47688,0,0,0,0,0.00,0.00,0.00,0.00
2014-08-01 06:20:00,0,39964,0,0.00,0,0,0,0,34780,50000,4509,39000,0,0,0,0,0.00,0.00,0.00,0.00
2014-08-01 06:30:00,0,40366,0,0.00,0,0,0,0,37271,43054,1996,40448,0,0,0,0,0.00,0.00,0.00,0.00
2014-08-01 06:40:00,0,40999,0,0.00,0,0,0,0,34131,46616,3226,41063,0,0,0,0,0.00,0.00,0.00,0.00
2014-08-01 06:50:00,0,43586,0,0.00,0,0,0,0,36381,50000,3957,43690,0,0,0,0,0.00,0.00,0.00,0.00
2014-08-01 07:00:00,0,48605,0,0.00,0,0,0,0,45588,50000,1775,50000,0,0,0,0,0.00,0.00,0.00,0.00
2014-08-01 07:10:00,0,47618,0,0.00,0,0,0,0,42795,50000,2815,49198,0,0,0,0,0.00,0.00,0.00,0.00
2014-08-01 07:20:00,0,49443,0,0.00,0,0,0,0,45260,50000,1416,50000,0,0,0,0,0.00,0.00,0.00,0.00
2014-08-01 07:30:00,0,49775,0,0.00,0,0,0,0,48127,50000,561,50000,0,0,0,0,0.00,0.00,0.00,0.00
2014-08-01 07:40:00,0,43211,0,0.00,0,0,0,0,31365,50000,6645,45096,0,0,0,0,0.00,0.00,0.00,0.00
2014-08-01 07:50:00,0,32061,0,0.00,0,0,0,0,27255,38564,3848,30874,0,0,0,0,0.00,0.00,0.00,0.00
2014-08-01 08:00:00,0,42115,0,0.00,0,0,0,0,32672,49950,5370,43277,0,0,0,0,0.00,0.00,0.00,0.00
2014-08-01 08:10:00,0,47962,0,0.00,0,0,0,0,43432,50000,2265,48803,0,0,0,0,0.00,0.00,0.00,0.00
2014-08-01 08:20:00,0,48890,0,0.00,0,0,0,0,43563,50000,2127,50000,0,0,0,0,0.00,0.00,0.00,0.00
2014-08-01 08:30:00,0,49698,0,0.00,0,0,0,0,47463,50000,759,50000,0,0,0,0,0.00,0.00,0.00,0.00
2014-08-01 08:40:00,0,49491,0,0.00,0,0,0,0,46814,50000,985,50000,0,0,0,0,0.00,0.00,0.00,0.00
2014-08-01 08:50:00,0,49703,0,0.00,0,0,0,0,47916,50000,651,50000,0,0,0,0,0.00,0.00,0.00,0.00
2014-08-01 09:00:00,0,49876,0,0.00,0,0,0,0,48760,50000,372,50000,0,0,0,0,0.00,0.00,0.00,0.00
2014-08-01 09:10:00,0,49619,0,0.00,0,0,0,0,46592,50000,1016,50000,0,0,0,0,0.00,0.00,0.00,0.00
2014-08-01 09:20:00,0,49221,0,0.00,0,0,0,0,45437,50000,1408,50000,0,0,0,0,0.00,0.00,0.00,0.00
2014-08-01 09:30:00,0,50000,0,0.00,0,0,0,0,50000,50000,0,50000,0,0,0,0,0.00,0.00,0.00,0.00
2014-08-01 09:40:00,0,49902,0,0.00,0,0,0,0,49083,50000,274,50000,0,0,0,0,0.00,0.00,0.00,0.00
2014-08-01 09:50:00,0,49073,0,0.00,0,0,0,0,44107,50000,1938,50000,0,0,0,0,0.00,0.00,0.00,0.00
2014-08-01 10:00:00,0,48936,0,0.00,0,0,0,0,45623,50000,1531,50000,0,0,0,0,0.00,0.00,0.00,0.00
2014-08-01 10:10:00,0,48888,0,0.00,0,0,0,0,43535,50000,2260,50000,0,0,0,0,0.00,0.00,0.00,0.00
2014-08-01 10:20:00,0,49825,0,0.00,0,0,0,0,48886,50000,340,50000,0,0,0,0,0.00,0.00,0.00,0.00
2014-08-01 10:30:00,0,49972,0,0.00,0,0,0,0,49723,50000,83,50000,0,0,0,0,0.00,0.00,0.00,0.00
2014-08-01 10:40:00,0,45528,0,0.00,0,0,0,0,30453,50000,6265,48657,0,0,0,0,0.00,0.00,0.00,0.00
2014-08-01 10:50:00,0,38703,0,0.00,0,0,0,0,29847,48674,6277,37808,0,0,0,0,0.00,0.00,0.00,0.00
2014-08-01 11:00:00,0,48096,0,0.00,0,0,0,0,42816,50000,2511,49170,0,0,0,0,0.00,0.00,0.00,0.00
2014-08-01 11:10:00,0,47902,0,0.00,0,0,0,0,43845,50000,2390,49154,0,0,0,0,0.00,0.00,0.00,0.00
2014-08-01 11:20:00,0,47020,0,0.00,0,0,0,0,40044,50000,3321,47812,0,0,0,0,0.00,0.00,0.00,0.00
2014-08-01 11:30:00,0,49298,0,0.00,0,0,0,0,47706,50000,915,50000,0,0,0,0,0.00,0.00,0.00,0.00
2014-08-01 11:40:00,0,50000,0,0.00,0,0,0,0,49997,50000,1,50000,0,0,0,0,0.00,0.00,0.00,0.00
2014-08-01 11:50:00,0,49856,0,0.00,0,0,0,0,48557,50000,433,50000,0,0,0,0,0.00,0.00,0.00,0.00
2014-08-01 12:00:00,0,49475,0,0.00,0,0,0,0,46608,50000,1104,50000,0,0,0,0,0.00,0.00,0.00,0.00
2014-08-01 12:10:00,0,50000,0,0.00,0,0,0,0,50000,50000,0,50000,0,0,0,0,0.00,0.00,0.00,0.00
2014-08-01 12:20:00,0,49995,0,0.00,0,0,0,0,49948,50000,16,50000,0,0,0,0,0.00,0.00,0.00,0.00
2014-08-01 12:30:00,0,50000,0,0.00,0,0,0,0,50000,50000,0,50000,0,0,0,0,0.00,0.00,0.00,0.00
2014-08-01 12:40:00,0,50000,0,0.00,0,0,0,0,50000,50000,0,50000,0,0,0,0,0.00,0.00,0.00,0.00
2014-08-01 12:50:00,0,50000,0,0.00,0,0,0,0,50000,50000,0,50000,0,0,0,0,0.00,0.00,0.00,0.00
2014-08-01 13:00:00,0,50000,0,0.00,0,0,0,0,50000,50000,0,50000,0,0,0,0,0.00,0.00,0.00,0.00
2014-08-01 13:10:00,0,49965,0,0.00,0,0,0,0,49654,50000,104,50000,0,0,0,0,0.00,0.00,0.00,0.00
2014-08-01 13:20:00,0,50000,0,0.00,0,0,0,0,50000,50000,0,50000,0,0,0,0,0.00,0.00,0.00,0.00
2014-08-01 13:30:00,0,49597,0,0.00,0,0,0,0,47039,50000,891,50000,0,0,0,0,0.00,0.00,0.00,0.00
2014-08-01 13:40:00,0,48947,0,0.00,0,0,0,0,44343,50000,1935,50000,0,0,0,0,0.00,0.00,0.00,0.00
2014-08-01 13:50:00,0,45942,0,0.00,0,0,0,0,41842,50000,2891,45725,0,0,0,0,0.00,0.00,0.00,0.00
2014-08-01 14:00:00,0,29627,0,0.00,0,0,0,0,17696,38656,6600,28022,0,0,0,0,0.00,0.00,0.00,0.00
2014-08-01 14:10:00,0,14734,0,0.00,0,0,0,0,8392,22554,5234,12616,0,0,0,0,0.00,0.00,0.00,0.00
2014-08-01 14:20:00,0,8783,1,0.00,0,0,0,0,7402,11063,973,8828,0,10,3,0,0.00,0.00,0.00,0.00
2014-08-01 14:30:00,0,7584,10,0.00,0,0,0,0,6660,8780,671,7590,10,10,0,10,0.00,0.00,0.00,0.00
2014-08-01 14:40:00,0,8219,10,0.00,0,0,0,0,6877,9735,963,8249,10,10,0,10,0.00,0.00,0.00,0.00
2014-08-01 14:50:00,0,9402,10,0.00,0,0,0,0,6470,11567,1576,9493,10,10,0,10,0.00,0.00,0.00,0.00
2014-08-01 15:00:00,0,11534,9,0.00,0,0,0,0,9359,13082,1247,11752,0,10,3,10,0.00,0.00,0.00,0.00
2014-08-01 15:10:00,0,10052,0,0.00,0,0,0,0,8258,14170,1983,9315,0,0,0,0,0.00,0.00,0.00,0.00
2014-08-01 15:20:00,0,11857,0,0.00,0,0,0,0,8106,13797,1680,11966,0,0,0,0,0.00,0.00,0.00,0.00
2014-08-01 15:30:00,0,10018,0,0.00,0,0,0,0,6950,13936,2287,9795,0,0,0,0,0.00,0.00,0.00,0.00
2014-08-01 15:40:00,0,9603,8,0.00,0,0,0,0,8641,10757,569,9554,0,10,4,10,0.00,0.00,0.00,0.00
2014-08-01 15:50:00,0,10944,10,0.00,0,0,0,0,9069,15369,2092,10168,10,10,0,10,0.00,0.00,0.00,0.00
2014-08-01 16:00:00,0,12106,3,0.00,0,0,0,0,9933,16099,2148,11655,0,10,5,0,0.00,0.00,0.00,0.00
2014-08-01 16:10:00,0,12557,0,0.00,0,0,0,0,10951,14732,1122,12475,0,0,0,0,0.00,0.00,0.00,0.00
2014-08-01 16:20:00,0,11420,0,0.00,0,0,0,0,8320,14276,1554,11414,0,0,0,0,0.00,0.00,0.00,0.00
2014-08-01 16:30:00,0,14190,0,0.00,0,0,0,0,11718,17618,2137,13699,0,0,0,0,0.00,0.00,0.00,0.00
2014-08-01 16:40:00,0,17012,0,0.00,0,0,0,0,11979,27546,5342,14596,0,0,0,0,0.00,0.00,0.00,0.00
2014-08-01 16:50:00,0,24051,0,0.00,0,0,0,0,17106,31202,4882,23558,0,0,0,0,0.00,0.00,0.00,0.00
2014-08-01 17:00:00,0,27099,0,0.00,0,0,0,0,20550,32637,3192,27838,0,0,0,0,0.00,0.00,0.00,0.00
2014-08-01 17:10:00,0,31741,0,0.00,0,0,0,0,26803,42144,4648,30513,0,0,0,0,0.00,0.00,0.00,0.00
2014-08-01 17:20:00,0,41651,0,0.00,0,0,0,0,30532,46597,4542,43622,0,0,0,0,0.00,0.00,0.00,0.00
2014-08-01 17:30:00,0,46753,0,0.00,0,0,0,0,38629,50000,3487,47509,0,0,0,0,0.00,0.00,0.00,0.00
2014-08-01 17:40:00,0,49444,0,0.00,0,0,0,0,47863,50000,702,49864,0,0,0,0,0.00,0.00,0.00,0.00
2014-08-01 17:50:00,0,48264,0,0.00,0,0,0,0,40969,50000,2618,49260,0,0,0,0,0.00,0.00,0.00,0.00
2014-08-01 18:00:00,0,49464,0,0.00,0,0,0,0,48224,50000,740,49984,0,0,0,0,0.00,0.00,0.00,0.00
2014-08-01 18:10:00,0,34575,0,0.00,0,0,0,0,22029,46473,10492,35460,0,0,0,0,0.00,0.00,0.00,0.00
2014-08-01 18:20:00,0,40379,0,0.00,0,0,0,0,23728,50000,8140,44432,0,0,0,0,0.00,0.00,0.00,0.00
2014-08-01 18:30:00,0,42959,0,0.00,0,0,0,0,28269,50000,6806,45510,0,0,0,0,0.00,0.00,0.00,0.00
2014-08-01 18:40:00,0,39159,0,0.00,0,0,0,0,21316,47667,8353,41688,0,0,0,0,0.00,0.00,0.00,0.00
2014-08-01 18:50:00,0,40862,0,0.00,0,0,0,0,24504,50000,6911,41912,0,0,0,0,0.00,0.00,0.00,0.00
2014-08-01 19:00:00,0,49041,0,0.00,0,0,0,0,45091,50000,1839,50000,0,0,0,0,0.00,0.00,0.00,0.00
2014-08-01 19:10:00,0,50000,0,0.00,0,0,0,0,50000,50000,0,50000,0,0,0,0,0.00,0.00,0.00,0.00
2014-08-01 19:20:00,0,49163,0,0.00,0,0,0,0,45681,50000,1584,50000,0,0,0,0,0.00,0.00,0.00,0.00
2014-08-01 19:30:00,0,50000,0,0.00,0,0,0,0,50000,50000,0,50000,0,0,0,0,0.00,0.00,0.00,0.00
2014-08-01 19:40:00,0,50000,0,0.00,0,0,0,0,50000,50000,0,50000,0,0,0,0,0.00,0.00,0.00,0.00
2014-08-01 19:50:00,0,49896,0,0.00,0,0,0,0,48959,50000,312,50000,0,0,0,0,0.00,0.00,0.00,0.00
2014-08-01 20:00:00,0,50000,0,0.00,0,0,0,0,50000,50000,0,50000,0,0,0,0,0.00,0.00,0.00,0.00
2014-08-01 20:10:00,0,49822,0,0.00,0,0,0,0,48525,50000,442,50000,0,0,0,0,0.00,0.00,0.00,0.00
2014-08-01 20:20:00,0,50000,0,0.00,0,0,0,0,50000,50000,0,50000,0,0,0,0,0.00,0.00,0.00,0.00
2014-08-01 20:30:00,0,50000,0,0.00,0,0,0,0,50000,50000,0,50000,0,0,0,0,0.00,0.00,0.00,0.00
2014-08-01 20:40:00,0,50000,0,0.00,0,0,0,0,50000,50000,0,50000,0,0,0,0,0.00,0.00,0.00,0.00
2014-08-01 20:50:00,0,50000,0,0.00,0,0,0,0,50000,50000,0,50000,0,0,0,0,0.00,0.00,0.00,0.00
2014-08-01 21:00:00,0,50000,0,0.00,0,0,0,0,50000,50000,0,50000,0,0,0,0,0.00,0.00,0.00,0.00
2014-08-01 21:10:00,0,49507,0,0.00,0,0,0,0,45395,50000,1374,50000,0,0,0,0,0.00,0.00,0.00,0.00
2014-08-01 21:20:00,0,47761,0,0.00,0,0,0,0,40746,50000,3436,50000,0,0,0,0,0.00,0.00,0.00,0.00
2014-08-01 21:30:00,0,45536,0,0.00,0,0,0,0,35877,50000,4638,47670,0,0,0,0,0.00,0.00,0.00,0.00
2014-08-01 21:40:00,0,48746,0,0.00,0,0,0,0,42430,50000,2273,49946,0,0,0,0,0.00,0.00,0.00,0.00
2014-08-01 21:50:00,0,50000,0,0.00,0,0,0,0,50000,50000,0,50000,0,0,0,0,0.00,0.00,0.00,0.00
2014-08-01 22:00:00,0,49857,0,0.00,0,0,0,0,48880,50000,338,50000,0,0,0,0,0.00,0.00,0.00,0.00
2014-08-01 22:10:00,0,37974,0,0.00,0,0,0,0,23836,50000,8950,40350,0,0,0,0,0.00,0.00,0.00,0.00
2014-08-01 22:20:00,0,49857,0,0.00,0,0,0,0,48573,50000,428,50000,0,0,0,0,0.00,0.00,0.00,0.00
2014-08-01 22:30:00,0,42161,0,0.00,0,0,0,0,27986,50000,7134,44077,0,0,0,0,0.00,0.00,0.00,0.00
2014-08-01 22:40:00,0,49862,0,0.00,0,0,0,0,48616,50000,415,50000,0,0,0,0,0.00,0.00,0.00,0.00
2014-08-01 22:50:00,0,50000,0,0.00,0,0,0,0,50000,50000,0,50000,0,0,0,0,0.00,0.00,0.00,0.00
2014-08-01 23:00:00,0,49726,0,0.00,0,0,0,0,47265,50000,820,50000,0,0,0,0,0.00,0.00,0.00,0.00
2014-08-01 23:10:00,0,50000,0,0.00,0,0,0,0,50000,50000,0,50000,0,0,0,0,0.00,0.00,0.00,0.00
2014-08-01 23:20:00,0,50000,0,0.00,0,0,0,0,50000,50000,0,50000,0,0,0,0,0.00,0.00,0.00,0.00
2014-08-01 23:30:00,0,49676,0,0.00,0,0,0,0,46759,50000,972,50000,0,0,0,0,0.00,0.00,0.00,0.00
2014-08-01 23:40:00,0,48368,0,0.00,0,0,0,0,43249,50000,2591,50000,0,0,0,0,0.00,0.00,0.00,0.00
2014-08-01 23:50:00,0,50000,0,0.00,0,0,0,0,50000,50000,0,50000,0,0,0,0,0.00,0.00,0.00,0.00
